Poker Online | DewaPoker | Situs Poker Uang Asli | Domino Qiu Qiu Online

togel online

Jackpot

Texas Poker Multi Jackpot System

Kini Telah hadir Jackpot SUPER ROYAL FLUSH

Kini Telah hadir Jackpot 2000 (khusus table VIP keatas).

Ikutilah global jackpot yang tersedia di system kami, dengan system jackpot terbaru dan pertama di indonesia, anda dapat membeli jackpot dengan harga 100 rupiah saja dan menangkan hadiahnya hingga puluhan juta rupiah.

Jackpot bukanlah suatu keharusan untuk dibeli, namun kami memberikan suatu fitur tambahan untuk member tercinta dari www.feraripoker.org.

Terdapat tiga pilihan harga jackpot yang bisa anda beli yaitu :100,500,1000 dan 2000(khusus table VIP Keatas) rupiah.

Hadiah dari Multi jackpot system www.feraripoker.org

  1. full house x 10 harga jackpot yang anda beli.
      (contoh:anda membeli 1000 maka:1000 X10 = 10.000)
  2. four of kind x 250 harga jackpot yang anda beli
      (contoh:anda membeli 1000 maka:1000 X250 = 250.000)
  3. Straight flush x 1200
      (contoh:anda membeli 1000 maka:1000 X1200 = 1.200.000)
  4. Royal flush x 10000 harga jackpot yang anda beli
      (contoh:anda membeli 1000 maka:1000 X10000 = 10.000.000)
  5. SUPER ROYAL FLUSH x 30000 harga jackpot yang anda beli
      (contoh:anda membeli 1000 maka:1000 X30000 = 30.000.000)

Kondisi kartu

  1. full house adalah kondisi kartu dimana kartu anda dan kartu tengah dengan total 7 kartu bisa mendapatkan nilai 5 kartu dengan kombinasi 1 tris(three of kind) dan 1 pair, contoh 3 kartu 10 dan 2 kartu 5
  2. Four of kind adalah kondisi kartu dimana kartu anda dan kartu tengah dengan total 7 kartu bisa mendapatkan nilai 5 kartu dengan kombinasi 4 kartu yang sama jumlah dan 1 kartu apapun juga contoh anda mendapatkan 4 buah kartu angka 3 dan 1 kartu apapun.
  3. Staright flush adalah kondisi kartu dimana kartu anda dan kartu tengah dengan total 7 kartu bisa mendapatkan nilai 5 kartu dengan kombinasi seri / staright dengan kembang yang sama contoh : urutan kartu dari angka 5, 6, 7, 8 , 9 10 dengan kembang yg sama misalnya as hati
  4. Royal flush adalah kondisi kartu dimana kartu anda dan kartu tengah dengan total 7 kartu bisa mendapatkan nilai 5 kartu dengan kombinasi seri / staright dengan kembang yang sama tetapi kartu tersebut haruslah dimulai dari 10. contoh 10, Queen, Jack, King dan aces dengan kembang yang sama
  5. Super Royal flush adalah kondisi kartu dimana Kedua kartu anda digabung dengan 3 kartu pertama meja haruslah royal flush. contoh kartu anda 10,Queen kembang sama dan 3 kartu pertama meja adalah Jack, King dan aces dengan kembang yang sama

Demikian adalah penjelasan dari Multi Jackpot www.feraripoker.org terima kasih dan selamat bermain salam hoki dari kami

Texas Poker Jackpot Winner

TOP SUPER ROYAL FLUSH
No.TanggalNamaPriceWin
125/02 10:35HOKYYY_777Super Royal flush6,000,000
225/02 06:14ARYAGANISuper Royal flush6,000,000
325/02 03:46G5GZ1H0475Super Royal flush6,000,000
425/02 01:13RONTOK123Super Royal flush15,000,000
524/02 23:07AYMAN69Super Royal flush15,000,000
TOP ROYAL FLUSH
No.TanggalNamaPriceWin
125/02 13:45PKRSRG18Royal flush5,000,000
225/02 12:36NCELNS3VSMRoyal flush1,000,000
325/02 12:32BO2TFHVTLJRoyal flush5,000,000
425/02 12:10KERIMINALRoyal flush1,000,000
525/02 11:58SENO_GQXRoyal flush2,000,000
TOP STRAIGHT FLUSH
No.TanggalNamaPriceWin
125/02 14:30WALA_378Straight Flush1,200,000
225/02 14:28PAKACAN88Straight Flush600,000
325/02 14:19MUTT1ASStraight Flush240,000
425/02 14:19POTTER_99Straight Flush600,000
525/02 14:19BIG_B0ZZStraight Flush600,000
LATEST JACKPOT
No.TanggalNamaPriceWin
125/02 14:31CWEMETAL69Full House500
225/02 14:31UCIL165Full House1,000
325/02 14:31MAKSIAT14Full House2,000
425/02 14:31VJ66Full House10,000
525/02 14:31TRIMMSTARFull House5,000
625/02 14:31ZEFBOYFull House5,000
725/02 14:31BAGOLOTFull House5,000
825/02 14:30NGEJAKKEREFour Of A Kind50,000
925/02 14:30AKYUNFull House2,000
1025/02 14:30UCING859Full House2,000
1125/02 14:30GIDON_74Full House2,000
1225/02 14:30BEDULCOYFull House2,000
1325/02 14:30KAMILA25Full House20,000
1425/02 14:30KALEMBAKI1Full House10,000
1525/02 14:30LADHA77Full House1,000
1625/02 14:30FIVAFull House5,000
1725/02 14:30SIMON801Full House10,000
1825/02 14:30BAJ1NG212Full House10,000
1925/02 14:30TOTAL88Full House2,000
2025/02 14:30BIDAL12Full House5,000
2125/02 14:30TNN07Four Of A Kind12,500
2225/02 14:30CEKY0GIFull House20,000
2325/02 14:30F618A69CFull House2,000
2425/02 14:30T4DLATIF77Full House1,000
2525/02 14:30AADRAXSA4Full House1,000
2625/02 14:30LOVESSSSFour Of A Kind25,000
2725/02 14:30RHIEL89Full House5,000
2825/02 14:30GYY69Full House5,000
2925/02 14:30FADJAYAFull House10,000
3025/02 14:30TEMPEKDORAFull House2,000
3125/02 14:30SP4D1944Full House5,000
3225/02 14:30WALA_378Straight Flush1,200,000
3325/02 14:30S4MB4LAD00Full House1,000
3425/02 14:30BIG_B0ZZFull House5,000
3525/02 14:30WOWOX14Full House2,000
3625/02 14:30ANDERFull House2,000
3725/02 14:30SUR3434Four Of A Kind50,000
3825/02 14:30ELGIGOLOFull House5,000
3925/02 14:30CUPOX10Full House5,000
4025/02 14:30MANUELS99Full House5,000
4125/02 14:30T4DSELIP01Full House2,000
4225/02 14:30SELVIE93Full House1,000
4325/02 14:30TRIMADA99Full House1,000
4425/02 14:30ORZ159KP0YFull House5,000
4525/02 14:30DANIDAKARFull House5,000
4625/02 14:30IDNGIDN957Full House1,000
4725/02 14:30ONDLOPFull House5,000
4825/02 14:30TUKUL1000MFull House1,000
4925/02 14:30PURNAMA600Full House5,000
5025/02 14:30TAMBIE22Full House1,000

Domino Multi Jackpot System

Ikutilah global jackpot yang tersedia di system kami, dengan system jackpot terbaru dan pertama di indonesia, anda dapat membeli jackpot dengan harga 100 rupiah saja dan menangkan hadiahnya hingga puluhan juta rupiah.

Jackpot bukanlah suatu keharusan untuk dibeli, namun kami memberikan suatu fitur tambahan untuk member tercinta dari www.feraripoker.org.

Terdapat tiga pilihan harga jackpot yang bisa anda beli yaitu :100,500 dan 1000 rupiah.

Hadiah dari Multi jackpot system www.feraripoker.org

  1. Murni Kecil x 50 harga jackpot yang anda beli.
      (contoh:anda membeli 1000 maka:1000 X 50 = 50.000)
  2. Murni Besar x 50 harga jackpot yang anda beli
      (contoh:anda membeli 1000 maka:1000 X 50 = 50.000)
  3. BALAK x 100 harga jackpot yang anda beli
      (contoh:anda membeli 1000 maka:1000 X 100 = 100.000)
  4. ENAM DEWA x 6666 harga jackpot yang anda beli
      (contoh:anda membeli 1000 maka:1000 X 6666 = 6.666.000)

Demikian adalah penjelasan dari Multi Jackpot www.feraripoker.org terima kasih dan selamat bermain salam hoki dari kami

Domino Jackpot Winner

TOP ENAM DEWA
No.TanggalNamaPriceWin
125/02 12:45MAHO13murni enam3,333,000
225/02 12:35BLE77Smurni enam3,333,000
325/02 11:29FIKASARImurni enam6,666,000
425/02 10:57MERAH66murni enam666,600
525/02 10:15J4Y4K4Y4murni enam6,666,000
TOP BALAK
No.TanggalNamaPriceWin
125/02 14:29WAHYUANO13balak50,000
225/02 14:28THOM420balak100,000
325/02 14:23MOI37balak50,000
425/02 14:21NINIEN21balak50,000
525/02 14:19BAKHILbalak10,000
LATEST JACKPOT
No.TanggalNamaPriceWin
125/02 14:30WIN515murni kecil5,000
225/02 14:30IZ568423murni kecil50,000
325/02 14:30NIDALmurni kecil50,000
425/02 14:30MINUMKOPI9murni kecil25,000
525/02 14:30JOKOSU21murni kecil50,000
625/02 14:29WAHYUANO13balak50,000
725/02 14:28IKY81murni besar5,000
825/02 14:28FULINlucky9925,000
925/02 14:28LONG707murni besar25,000
1025/02 14:28THOM420balak100,000
1125/02 14:28MILIA11murni besar50,000
1225/02 14:27FHY69LUSTmurni besar50,000
1325/02 14:26M1575YWZNRmurni besar25,000
1425/02 14:25KAJINE16murni besar25,000
1525/02 14:25NORE23murni kecil5,000
1625/02 14:24DADOY88murni kecil50,000
1725/02 14:23POPON79murni besar50,000
1825/02 14:23MOI37balak50,000
1925/02 14:22NGAB_21murni kecil50,000
2025/02 14:21BOBOW012murni besar25,000
2125/02 14:21PUKIK0000murni kecil5,000
2225/02 14:21NINIEN21balak50,000
2325/02 14:20RATTIH99murni besar50,000
2425/02 14:20SALINGGIH6murni kecil50,000
2525/02 14:20BEBEC98murni besar50,000
2625/02 14:20DWBTNIA31murni kecil50,000
2725/02 14:19RESTU_IBUmurni kecil25,000
2825/02 14:19BAKHILbalak10,000
2925/02 14:18CINTO123murni kecil25,000
3025/02 14:18AAAALDG194murni besar50,000
3125/02 14:18JAMET82murni kecil50,000
3225/02 14:18DWTRAZKA23balak50,000
3325/02 14:18DWBTNIA31balak100,000
3425/02 14:17CANGCUT07murni besar25,000
3525/02 14:16ZONSON92lucky9910,000
3625/02 14:16ZONSON92murni besar25,000
3725/02 14:15GEBOX82murni besar25,000
3825/02 14:15H11RV424U6murni besar5,000
3925/02 14:15BENEH98murni kecil25,000
4025/02 14:15MINUMKOPI9murni kecil25,000
4125/02 14:14AGUNK4355murni kecil50,000
4225/02 14:14AAAALDG194murni kecil50,000
4325/02 14:14AZHARMIL2murni besar50,000
4425/02 14:14PISHING1murni besar5,000
4525/02 14:14REMOT155murni kecil50,000
4625/02 14:13CELANA99balak100,000
4725/02 14:13IHUL87murni kecil50,000
4825/02 14:12BLOKD3balak50,000
4925/02 14:12FERDYANZDAmurni kecil50,000
5025/02 14:12AGUNK4355murni besar50,000

Ceme Multi Jackpot System

Jackpot dilihat dari gabungan kartu pemain dengan kartu bandar. Bandar harus membeli jackpot sebanyak jumlah player yang sedang duduk. Sebagai contoh bila terdapat 3 pemain duduk bermain, dan bandar memutuskan untuk membeli jackpot Rp 1.000, maka pada periode tersebut bandar akan membeli jackpot sebanyak 3xRp1.000 = Rp3.000.

Jackpot bukanlah suatu keharusan untuk dibeli, namun kami memberikan suatu fitur tambahan untuk member tercinta dari www.feraripoker.org.

Terdapat tiga pilihan harga jackpot yang bisa anda beli yaitu :100,500 dan 1000 rupiah.

Hadiah dari Multi jackpot system www.feraripoker.org

  1. Murni Kecil x 50 harga jackpot yang anda beli.
      (contoh:anda membeli 1000 maka:1000 X 50 = 50.000)
  2. Murni Besar x 50 harga jackpot yang anda beli
      (contoh:anda membeli 1000 maka:1000 X 50 = 50.000)
  3. BALAK x 200 harga jackpot yang anda beli
      (contoh:anda membeli 1000 maka:1000 X 200 = 200.000)
  4. ENAM DEWA x 6666 harga jackpot yang anda beli
      (contoh:anda membeli 1000 maka:1000 X 6666 = 6.666.000)

Demikian adalah penjelasan dari Multi Jackpot www.feraripoker.org terima kasih dan selamat bermain salam hoki dari kami

Ceme Jackpot Winner

TOP ENAM DEWA
No.TanggalNamaPriceWin
125/02 14:30D4N4TUN41murni enam666,600
225/02 14:24KELANA212murni enam6,666,000
325/02 14:24GUNTURS_murni enam3,333,000
425/02 14:12SAINT85murni enam6,666,000
525/02 14:12ENITA88murni enam666,600
TOP BALAK
No.TanggalNamaPriceWin
125/02 14:31E22839F8balak100,000
225/02 14:30DWJLH07balak200,000
325/02 14:29RULLY6balak200,000
425/02 14:29RNH93balak100,000
525/02 14:29WAKANDA20balak100,000
LATEST JACKPOT
No.TanggalNamaPriceWin
125/02 14:31E22839F8balak100,000
225/02 14:31TONQZmurni kecil50,000
325/02 14:31MHI8452murni kecil50,000
425/02 14:31TONQZmurni kecil50,000
525/02 14:31AW201murni kecil5,000
625/02 14:31R4ND2murni kecil25,000
725/02 14:30YIBTQXJCQ6murni kecil5,000
825/02 14:30IWAN32murni kecil50,000
925/02 14:30KROMOOmurni kecil50,000
1025/02 14:30VASSN123murni besar25,000
1125/02 14:30A3121Smurni kecil50,000
1225/02 14:30CLASSIC79murni kecil50,000
1325/02 14:30LOND00murni besar25,000
1425/02 14:30GHIF76murni kecil5,000
1525/02 14:30AIIKO07111murni kecil25,000
1625/02 14:30AMEX0707murni kecil25,000
1725/02 14:30D4N4TUN41murni enam666,600
1825/02 14:30FD67AB80murni besar25,000
1925/02 14:30DWJLH07balak200,000
2025/02 14:30ABANGTAMPUmurni besar25,000
2125/02 14:30L17257PZ8LE5OE0murni kecil50,000
2225/02 14:29KELANA212murni besar50,000
2325/02 14:29J4ND4SIPmurni besar50,000
2425/02 14:29KELANA212murni besar50,000
2525/02 14:29HUNI459murni besar50,000
2625/02 14:29TONQZmurni besar50,000
2725/02 14:29BUDIBIANmurni kecil50,000
2825/02 14:29RULLY6balak200,000
2925/02 14:29HELOPKR2murni kecil25,000
3025/02 14:29CUUP1996murni kecil25,000
3125/02 14:29RNH93balak100,000
3225/02 14:29WAKANDA20balak100,000
3325/02 14:29JACK9871murni besar5,000
3425/02 14:29KEJHOmurni besar25,000
3525/02 14:29RAGNARAAmurni besar25,000
3625/02 14:29M0D4LN1K4Hmurni kecil50,000
3725/02 14:29AAV1Qmurni besar50,000
3825/02 14:29TRIQUETRAmurni besar50,000
3925/02 14:29BUNRANK80murni kecil50,000
4025/02 14:29ONDOL57murni kecil5,000
4125/02 14:29APN123murni besar50,000
4225/02 14:29ANKWYGmurni kecil25,000
4325/02 14:29FINBOY902murni kecil50,000
4425/02 14:29HENIRUSmurni kecil50,000
4525/02 14:29FIRLYTYAmurni kecil50,000
4625/02 14:29SENDOK87murni kecil5,000
4725/02 14:28JOCKER127murni kecil50,000
4825/02 14:28BNDR114murni kecil50,000
4925/02 14:28PUTIHTAWARmurni kecil5,000
5025/02 14:28COPER1992murni kecil25,000